Location: Olsztyn
(53.7767°N, 20.4765°E)
Time: 16:00:25
(UTC+02:00)

Transit 4A - Pass Details

Date: 22 July 2024
Orbit: 864 x 978 km, 66.8° (Epoch: 28 April)

Event Time Altitude Azimuth Distance (km) Brightness Sun altitude
Rises 21:48:16 0° 310° (NW) 3,470 13.1 -7.0°
Reaches altitude 10° 21:51:06 10° 321° (NW) 2,542 12.0 -7.3°
Maximum altitude 21:56:10 29° 21° (NNE) 1,586 9.5 -7.8°
Drops below altitude 10° 22:01:19 10° 81° (E) 2,595 10.0 -8.3°
Sets 22:04:14 0° 92° (E) 3,555 10.6 -8.5°
